Location: Ammerl�gen
(47.2167°N, 9.6000°E)
Time: 09:31:39
(UTC+00:00)

Cosmos 468 Rocket - Pass Details

Date: 21 April 2021
Orbit: 745 x 779 km, 74.0° (Epoch: 06 May)

Event Time Altitude Azimuth Distance (km) Brightness Sun altitude
Rises 21:21:54 0° 334° (NNW) 3,198 8.6 -25.0°
Reaches altitude 10° 21:24:17 10° 331° (NNW) 2,271 7.5 -25.2°
Maximum altitude 21:29:20 59° 253° (WSW) 866 4.2 -25.7°
Enters shadow 21:29:45 57° 230° (SW) 884 4.2 -25.7°
